Content
SEND FEEDBACK

Daily
Averages
Monthly
Summary
United States of America

HAPPY JACK, ARIZONA


Home > North America > United States > Arizona
Elevation: 7480 feet     Latitude: 34 44N     Longitude: 111 25W

WEATHER
 
SELECT A DAY
Number of Records: 137,486;   Date Range: 1/4/95 - 10/18/14
 
SHARE

PRINT THIS DATA

[ ← Previous Day ]
WEATHER ALMANAC - SEPTEMBER 2, 2014
[ Next Day → ]
[ °C ]   °F
Weather ElementAverageHighLow
Temperature78.7 °F91.4 °F (12:35 pm)66.2 °F (5:55 am)
Dewpoint38 °F44.6 °F (8:35 am)30.2 °F (6:55 pm)
Humidity24.9 %40 % (5:55 am)13 % (4:55 pm)
Barometer30.07 in30.13 in (8:55 am)30.01 in (4:55 pm)
Wind Speed7.2 mph15 mph (6:15 am)
Weather ElementAverage
Visibility10 mi
Wind DirectionESE (99.5 °)

Weather ElementTotal
Precipitation---
Cooling Degree Days13.8 (Base 65)
Growing Degree Days28.8 (Base 50)
Averaged from 65 records on September 2, 2014
WEATHER CONDITIONS BREAKOUT
WIND DIRECTION BREAKOUT
WEATHER BY HOUR - SEPTEMBER 2, 2014
[ °C ]   °F
Local TimeTemperatureDewpointHumidityBarometerVisibilityWind DirectionWind SpeedGust SpeedPrecipitationEventsConditions
12:35 AM71.6 °F42.8 °F35 %30.08 in10.0 miNE (40°)10.4 mphClear
12:55 AM71.6 °F42.8 °F35 %30.08 in10.0 miNNE (30°)10.4 mphClear
1:15 AM71.6 °F41.0 °F33 %30.07 in10.0 miNNE (30°)10.4 mphClear
1:35 AM69.8 °F42.8 °F38 %30.07 in10.0 miNNE (30°)11.5 mphClear
1:55 AM69.8 °F41.0 °F35 %30.08 in10.0 miNNE (30°)10.4 mphClear
2:15 AM69.8 °F41.0 °F35 %30.08 in10.0 miNE (40°)10.4 mphClear
2:35 AM69.8 °F42.8 °F38 %30.09 in10.0 miNE (40°)10.4 mphClear
3:15 AM69.8 °F41.0 °F35 %30.09 in10.0 miNE (40°)10.4 mphClear
3:35 AM68.0 °F41.0 °F37 %30.09 in10.0 miNE (40°)10.4 mphClear
3:55 AM69.8 °F41.0 °F35 %30.10 in10.0 miNE (40°)10.4 mphClear
4:15 AM69.8 °F41.0 °F35 %30.10 in10.0 miNE (40°)11.5 mphClear
4:35 AM69.8 °F41.0 °F35 %30.10 in10.0 miNE (50°)10.4 mphClear
4:55 AM68.0 °F41.0 °F37 %30.10 in10.0 miNE (40°)9.2 mphClear
5:15 AM68.0 °F41.0 °F37 %30.10 in10.0 miNNE (30°)12.7 mphClear
5:35 AM68.0 °F41.0 °F37 %30.10 in10.0 miNE (40°)12.7 mphClear
5:55 AM66.2 °F41.0 °F40 %30.10 in10.0 miNE (40°)13.8 mphClear
6:15 AM68.0 °F41.0 °F37 %30.11 in10.0 miNE (40°)15.0 mphClear
6:35 AM68.0 °F41.0 °F37 %30.11 in10.0 miNE (40°)13.8 mphClear
6:55 AM68.0 °F41.0 °F37 %30.11 in10.0 miNE (40°)15.0 mphClear
7:15 AM69.8 °F41.0 °F35 %30.11 in10.0 miNE (40°)12.7 mphClear
7:35 AM71.6 °F41.0 °F33 %30.11 in10.0 miNE (40°)11.5 mphClear
7:55 AM73.4 °F41.0 °F31 %30.12 in10.0 miNE (40°)10.4 mphClear
8:15 AM75.2 °F42.8 °F31 %30.12 in10.0 miNE (50°)4.6 mphClear
8:35 AM78.8 °F44.6 °F30 %30.12 in10.0 miCalmClear
8:55 AM77.0 °F44.6 °F32 %30.13 in10.0 miSSE (150°)3.5 mphClear
9:35 AM80.6 °F44.6 °F28 %30.13 in10.0 miSouth (180°)3.5 mphClear
9:55 AM82.4 °F44.6 °F26 %30.13 in10.0 miSouth (180°)3.5 mphClear
10:15 AM84.2 °F44.6 °F25 %30.13 in10.0 miSouth (180°)4.6 mphClear
11:15 AM87.8 °F39.2 °F18 %30.13 in10.0 miWSW (240°)6.9 mphClear
11:35 AM87.8 °F41.0 °F19 %30.12 in10.0 miSW (230°)3.5 mphClear
11:55 AM87.8 °F39.2 °F18 %30.12 in10.0 miSouth (190°)6.9 mphClear
12:15 PM89.6 °F41.0 °F18 %30.11 in10.0 miSouth (170°)6.9 mphClear
12:35 PM91.4 °F37.4 °F15 %30.10 in10.0 miSE (140°)12.7 mphClear
12:55 PM87.8 °F37.4 °F17 %30.11 in10.0 miCalmClear
1:35 PM89.6 °F37.4 °F16 %30.09 in10.0 miSSW (200°)4.6 mphClear
1:55 PM89.6 °F37.4 °F16 %30.08 in10.0 miSouth (190°)4.6 mphClear
2:15 PM89.6 °F35.6 °F15 %30.07 in10.0 miSSW (210°)5.8 mphClear
2:35 PM89.6 °F37.4 °F16 %30.06 in10.0 miSW (230°)3.5 mphClear
2:55 PM91.4 °F37.4 °F15 %30.05 in10.0 miSouth (170°)6.9 mphClear
3:15 PM91.4 °F37.4 °F15 %30.04 in10.0 miWest (270°)5.8 mphClear
3:35 PM89.6 °F37.4 °F16 %30.03 in10.0 miSSW (200°)8.1 mphClear
3:55 PM89.6 °F37.4 °F16 %30.02 in10.0 miSW (220°)4.6 mphClear
4:15 PM89.6 °F35.6 °F15 %30.02 in10.0 miSSE (160°)9.2 mphClear
4:35 PM89.6 °F33.8 °F14 %30.02 in10.0 miSSE (160°)6.9 mphClear
4:55 PM89.6 °F32.0 °F13 %30.01 in10.0 miSSW (200°)9.2 mphClear
5:15 PM87.8 °F32.0 °F14 %30.01 in10.0 miSouth (190°)8.1 mphClear
5:35 PM87.8 °F33.8 °F15 %30.01 in10.0 miSouth (180°)8.1 mphClear
5:55 PM86.0 °F32.0 °F14 %30.01 in10.0 miSSW (200°)8.1 mphClear
6:15 PM86.0 °F32.0 °F14 %30.01 in10.0 miSSW (200°)8.1 mphClear
6:35 PM84.2 °F32.0 °F15 %30.01 in10.0 miSSW (200°)6.9 mphClear
6:55 PM82.4 °F30.2 °F15 %30.01 in10.0 miSSW (210°)5.8 mphClear
7:15 PM80.6 °F30.2 °F16 %30.02 in10.0 miSW (230°)3.5 mphClear
7:35 PM80.6 °F30.2 °F16 %30.02 in10.0 miCalmClear
7:55 PM80.6 °F30.2 °F16 %30.02 in10.0 miCalmClear
8:15 PM80.6 °F32.0 °F17 %30.03 in10.0 miCalmClear
8:35 PM78.8 °F32.0 °F18 %30.03 in10.0 miCalmClear
9:15 PM77.0 °F33.8 °F21 %30.04 in10.0 miNE (40°)3.5 mphClear
9:35 PM77.0 °F33.8 °F21 %30.04 in10.0 miCalmClear
9:55 PM77.0 °F33.8 °F21 %30.04 in10.0 miCalmClear
10:15 PM73.4 °F35.6 °F25 %30.04 in10.0 miNE (40°)4.6 mphClear
10:35 PM75.2 °F33.8 °F22 %30.04 in10.0 miNE (50°)4.6 mphClear
10:55 PM73.4 °F35.6 °F25 %30.04 in10.0 miNE (50°)5.8 mphClear
11:15 PM71.6 °F35.6 °F27 %30.04 in10.0 miNE (40°)6.9 mphClear
11:35 PM71.6 °F35.6 °F27 %30.04 in10.0 miNE (40°)9.2 mphClear
11:55 PM71.6 °F35.6 °F27 %30.03 in10.0 miNE (40°)8.1 mphClear
Hourly data recorded from KSEZ, located miles away from Happy Jack, Arizona







STORIES FROM OUR PARTNERS